AFR91 KMIA-LFPG

Flight info

Callsign AFR91
Flight time N/A
Altitude 33000
Route FOLZZ3 SUMRS/M084F330 M204 LUNKR DCT 38N060W/M084F350 4230N05000W 45N040W 4730N03000W 4930N02000W DCT KOGAD DCT BIMGO DCT RATKA/N0482F350 DCT LARLA/N0478F380 DCT GANTO/N0481F370 DCT JSY/N0495F320 UY111 INGOR/N0495F280 UM25 LUKIP
Aircraft B77W/H-SDE1E2E3FGHIJ2J3J4J5M1RWXY/LB1D1

Departure

Time 2026-04-30 20:48
Airport Miami International Airport (KMIA)

Arrival

Time N/A
Airport Charles de Gaulle International Airport (LFPG)
Time Latitude Longitude Altitude Speed Heading
2026-04-30 19:58 25.79003 -80.27398 20 ft 0 kts 47°
2026-04-30 20:35 25.78993 -80.27413 21 ft 4 kts 65°
2026-04-30 20:36 25.78981 -80.27434 25 ft 4 kts 45°
2026-04-30 20:36 25.78960 -80.27451 24 ft 4 kts 13°
2026-04-30 20:36 25.78924 -80.27426 24 ft 4 kts 272°
2026-04-30 20:37 25.78925 -80.27396 25 ft 4 kts 268°
2026-04-30 20:37 25.78925 -80.27382 24 ft 0 kts 268°
2026-04-30 20:41 25.78924 -80.27424 20 ft 10 kts 268°
2026-04-30 20:41 25.78910 -80.27502 20 ft 10 kts 258°
2026-04-30 20:41 25.78896 -80.27582 20 ft 12 kts 259°
2026-04-30 20:42 25.78872 -80.27724 20 ft 20 kts 262°
2026-04-30 20:42 25.78871 -80.27881 21 ft 20 kts 269°
2026-04-30 20:42 25.78981 -80.28162 21 ft 20 kts 299°
2026-04-30 20:43 25.79050 -80.28299 21 ft 20 kts 300°
2026-04-30 20:43 25.79124 -80.28431 20 ft 20 kts 308°
2026-04-30 20:43 25.79201 -80.28561 19 ft 20 kts 298°
2026-04-30 20:44 25.79340 -80.28832 19 ft 20 kts 299°
2026-04-30 20:44 25.79409 -80.28968 19 ft 20 kts 299°
2026-04-30 20:44 25.79547 -80.29240 20 ft 20 kts 299°
2026-04-30 20:45 25.79686 -80.29511 20 ft 20 kts 300°
2026-04-30 20:45 25.79756 -80.29647 19 ft 20 kts 300°
2026-04-30 20:45 25.79822 -80.29776 19 ft 20 kts 299°
2026-04-30 20:46 25.80018 -80.30125 19 ft 12 kts 336°
2026-04-30 20:46 25.80070 -80.30102 19 ft 8 kts 69°
2026-04-30 20:47 25.80110 -80.29164 25 ft 131 kts 87°
2026-04-30 20:47 25.80164 -80.27918 31 ft 188 kts 90°
2026-04-30 20:48 25.80031 -80.24887 999 ft 198 kts 116°
2026-04-30 20:48 25.79399 -80.23586 1761 ft 194 kts 122°
2026-04-30 20:48 25.78729 -80.22196 2009 ft 214 kts 121°
2026-04-30 20:48 25.77999 -80.20618 2198 ft 240 kts 120°
2026-04-30 20:49 25.77221 -80.18914 2650 ft 254 kts 120°
2026-04-30 20:49 25.76384 -80.17137 3127 ft 266 kts 121°
2026-04-30 20:49 25.75469 -80.15297 3715 ft 275 kts 120°
2026-04-30 20:50 25.74168 -80.11308 4875 ft 288 kts 82°
2026-04-30 20:50 25.74843 -80.09284 5490 ft 286 kts 50°
2026-04-30 20:50 25.76129 -80.07629 6163 ft 285 kts 46°
2026-04-30 20:50 25.77466 -80.05944 6814 ft 288 kts 46°
2026-04-30 20:51 25.78792 -80.04267 7495 ft 290 kts 46°
2026-04-30 20:51 25.81462 -80.00895 8793 ft 297 kts 46°
2026-04-30 20:51 25.82829 -79.99167 9471 ft 299 kts 46°
2026-04-30 20:52 25.84206 -79.97424 10123 ft 302 kts 46°
2026-04-30 20:52 25.85618 -79.95635 10489 ft 317 kts 46°
2026-04-30 20:52 25.88722 -79.91702 10815 ft 360 kts 46°
2026-04-30 20:53 25.90419 -79.89546 11012 ft 380 kts 47°
2026-04-30 20:53 25.92184 -79.87298 11478 ft 391 kts 46°
2026-04-30 20:53 25.93988 -79.84998 12082 ft 398 kts 46°
2026-04-30 20:54 25.97651 -79.80321 13589 ft 404 kts 46°
2026-04-30 20:54 25.99506 -79.77953 14232 ft 409 kts 46°
2026-04-30 20:54 26.01383 -79.75557 14871 ft 413 kts 46°
2026-04-30 20:55 26.05191 -79.70691 16187 ft 420 kts 46°
2026-04-30 20:55 26.07119 -79.68226 16838 ft 424 kts 46°
2026-04-30 20:55 26.09065 -79.65738 17463 ft 428 kts 46°
2026-04-30 20:56 26.12861 -79.60539 18646 ft 438 kts 52°
2026-04-30 20:56 26.14604 -79.57742 19168 ft 442 kts 53°
2026-04-30 20:56 26.18091 -79.52034 20212 ft 449 kts 53°
2026-04-30 20:57 26.19886 -79.49154 20607 ft 456 kts 52°
2026-04-30 20:57 26.21716 -79.46252 21027 ft 461 kts 52°
2026-04-30 20:57 26.23574 -79.43322 21556 ft 463 kts 52°
2026-04-30 20:58 26.27306 -79.37433 22568 ft 468 kts 52°
2026-04-30 20:58 26.29315 -79.34597 22926 ft 468 kts 41°
2026-04-30 20:58 26.31903 -79.32437 23218 ft 464 kts 28°
2026-04-30 20:58 26.34691 -79.30566 23551 ft 469 kts 28°
2026-04-30 20:59 26.40291 -79.26755 24327 ft 474 kts 28°
2026-04-30 20:59 26.43091 -79.24802 24707 ft 476 kts 29°
2026-04-30 21:00 26.48716 -79.20815 25328 ft 484 kts 29°
2026-04-30 21:00 26.54438 -79.16723 25961 ft 491 kts 29°
2026-04-30 21:01 26.60200 -79.12595 26722 ft 494 kts 29°
2026-04-30 21:01 26.63063 -79.10543 27065 ft 497 kts 29°
2026-04-30 21:01 26.68952 -79.06325 27717 ft 502 kts 29°
2026-04-30 21:02 26.71887 -79.04220 28151 ft 502 kts 29°
2026-04-30 21:02 26.74830 -79.02107 28615 ft 501 kts 28°
2026-04-30 21:02 26.77776 -78.99992 28805 ft 507 kts 28°
2026-04-30 21:02 26.80757 -78.97852 28992 ft 511 kts 28°
2026-04-30 21:03 26.83755 -78.95698 29272 ft 513 kts 28°
2026-04-30 21:03 26.86762 -78.93534 29702 ft 511 kts 28°
2026-04-30 21:03 26.89703 -78.91415 30167 ft 509 kts 28°
2026-04-30 21:03 26.92673 -78.89273 30598 ft 506 kts 28°
2026-04-30 21:04 26.95627 -78.87142 31042 ft 503 kts 28°
2026-04-30 21:04 26.98599 -78.84998 31458 ft 501 kts 28°
2026-04-30 21:04 27.04445 -78.80779 32220 ft 498 kts 27°
2026-04-30 21:05 27.07356 -78.78676 32537 ft 498 kts 27°
2026-04-30 21:05 27.10231 -78.76599 32866 ft 497 kts 27°
2026-04-30 21:05 27.16083 -78.72367 32932 ft 504 kts 27°
2026-04-30 21:06 27.21979 -78.68092 32941 ft 502 kts 27°
2026-04-30 21:06 27.26879 -78.64533 32936 ft 499 kts 28°
2026-04-30 21:07 27.30424 -78.61218 32913 ft 507 kts 45°
2026-04-30 21:07 27.31921 -78.59126 32972 ft 508 kts 47°
2026-04-30 21:07 27.36183 -78.52760 32953 ft 511 kts 48°
2026-04-30 21:08 27.40485 -78.46380 32953 ft 513 kts 47°
2026-04-30 21:08 27.44856 -78.40076 32954 ft 515 kts 47°
2026-04-30 21:09 27.49294 -78.33745 32931 ft 516 kts 47°
2026-04-30 21:09 27.53749 -78.27386 32927 ft 517 kts 47°
2026-04-30 21:10 27.58200 -78.21013 32949 ft 518 kts 47°
2026-04-30 21:10 27.62646 -78.14631 32943 ft 518 kts 47°
2026-04-30 21:11 27.67095 -78.08235 32939 ft 518 kts 47°
2026-04-30 21:11 27.71547 -78.01825 32933 ft 518 kts 47°
2026-04-30 21:12 27.75988 -77.95422 32934 ft 518 kts 47°
2026-04-30 21:12 27.80420 -77.89023 32934 ft 517 kts 47°
2026-04-30 21:13 27.84840 -77.82632 32938 ft 516 kts 46°
2026-04-30 21:13 27.89259 -77.76235 32934 ft 517 kts 47°
2026-04-30 21:14 27.93688 -77.69813 32936 ft 518 kts 47°
2026-04-30 21:14 27.98122 -77.63373 32936 ft 520 kts 47°
2026-04-30 21:15 28.02561 -77.56915 32944 ft 520 kts 46°
2026-04-30 21:15 28.06994 -77.50455 32922 ft 518 kts 46°
2026-04-30 21:16 28.11399 -77.44027 32931 ft 517 kts 47°
2026-04-30 21:16 28.15818 -77.37574 32936 ft 519 kts 47°
2026-04-30 21:17 28.17753 -77.34744 32933 ft 519 kts 47°
2026-04-30 21:17 28.22186 -77.28254 32932 ft 521 kts 47°
2026-04-30 21:18 28.26627 -77.21740 32936 ft 522 kts 47°
2026-04-30 21:18 28.31055 -77.15232 32925 ft 520 kts 46°
2026-04-30 21:19 28.35467 -77.08740 32936 ft 518 kts 47°
2026-04-30 21:19 28.39865 -77.02262 32925 ft 518 kts 47°
2026-04-30 21:20 28.44262 -76.95775 32928 ft 519 kts 47°
2026-04-30 21:20 28.48664 -76.89270 32927 ft 520 kts 47°
2026-04-30 21:21 28.53067 -76.82752 32933 ft 520 kts 46°
2026-04-30 21:22 28.59670 -76.72960 32933 ft 519 kts 47°
2026-04-30 21:23 28.68423 -76.59942 32930 ft 520 kts 47°
2026-04-30 21:23 28.75125 -76.50252 32917 ft 518 kts 44°
2026-04-30 21:24 28.79800 -76.44033 32918 ft 516 kts 43°
2026-04-30 21:24 28.84469 -76.37819 32938 ft 516 kts 43°
2026-04-30 21:25 28.91423 -76.28412 32922 ft 518 kts 44°
2026-04-30 21:26 28.98370 -76.18941 32921 ft 519 kts 44°
2026-04-30 21:27 29.05325 -76.09442 32921 ft 519 kts 44°
2026-04-30 21:27 29.09951 -76.03116 32932 ft 518 kts 44°
2026-04-30 21:28 29.16889 -75.93613 32914 ft 519 kts 44°
2026-04-30 21:29 29.23823 -75.84091 32915 ft 519 kts 44°
2026-04-30 21:30 29.35354 -75.68205 32908 ft 518 kts 44°
2026-04-30 21:31 29.46864 -75.52290 32902 ft 518 kts 44°
2026-04-30 21:32 29.53761 -75.42722 32907 ft 518 kts 44°
2026-04-30 21:32 29.58355 -75.36337 32930 ft 519 kts 44°
2026-04-30 21:33 29.65267 -75.26713 32914 ft 522 kts 44°
2026-04-30 21:34 29.69859 -75.20303 32911 ft 523 kts 44°
2026-04-30 21:34 29.76795 -75.10604 32910 ft 524 kts 44°
2026-04-30 21:35 29.81412 -75.04134 32918 ft 523 kts 44°
2026-04-30 21:35 29.86025 -74.97659 32908 ft 522 kts 44°
2026-04-30 21:36 29.90621 -74.91198 32907 ft 520 kts 44°
2026-04-30 21:37 29.99772 -74.78306 32911 ft 519 kts 44°
2026-04-30 21:37 30.04334 -74.71864 32910 ft 519 kts 44°
2026-04-30 21:38 30.08900 -74.65407 32913 ft 520 kts 44°
2026-04-30 21:38 30.13478 -74.58920 32912 ft 521 kts 44°
2026-04-30 21:39 30.18059 -74.52418 32911 ft 522 kts 44°
2026-04-30 21:39 30.22644 -74.45900 32909 ft 523 kts 44°
2026-04-30 21:40 30.27233 -74.39365 32906 ft 523 kts 44°
2026-04-30 21:40 30.31815 -74.32829 32928 ft 523 kts 44°
2026-04-30 21:41 30.36394 -74.26286 32913 ft 522 kts 44°
2026-04-30 21:41 30.40960 -74.19751 32913 ft 521 kts 44°
2026-04-30 21:42 30.45480 -74.13273 32891 ft 520 kts 44°
2026-04-30 21:42 30.50048 -74.06714 32899 ft 519 kts 44°
2026-04-30 21:43 30.53812 -74.01301 32924 ft 519 kts 44°
2026-04-30 21:43 30.59091 -73.93701 32913 ft 521 kts 45°
2026-04-30 21:44 30.63650 -73.87121 32912 ft 524 kts 45°
2026-04-30 21:44 30.68213 -73.80521 32909 ft 525 kts 45°
2026-04-30 21:45 30.72794 -73.73882 32912 ft 527 kts 45°
2026-04-30 21:45 30.77370 -73.67237 32923 ft 527 kts 45°
2026-04-30 21:46 30.81956 -73.60573 32912 ft 527 kts 45°
2026-04-30 21:46 30.86534 -73.53901 32911 ft 527 kts 45°
2026-04-30 21:47 30.91098 -73.47240 32909 ft 526 kts 45°
2026-04-30 21:47 30.95658 -73.40576 32909 ft 526 kts 45°
2026-04-30 21:48 31.00213 -73.33909 32919 ft 526 kts 45°
2026-04-30 21:48 31.04774 -73.27223 32908 ft 527 kts 45°
2026-04-30 21:49 31.09344 -73.20510 32917 ft 529 kts 45°
2026-04-30 21:49 31.13928 -73.13765 32916 ft 531 kts 45°
2026-04-30 21:50 31.18517 -73.07000 32911 ft 532 kts 46°
2026-04-30 21:50 31.23110 -73.00218 32917 ft 533 kts 45°
2026-04-30 21:51 31.26933 -72.94562 32915 ft 534 kts 46°
2026-04-30 21:51 31.31534 -72.87747 32905 ft 535 kts 46°
2026-04-30 21:52 31.36142 -72.80908 32912 ft 535 kts 46°
2026-04-30 21:52 31.40752 -72.74054 32910 ft 536 kts 46°
2026-04-30 21:53 31.45364 -72.67185 32920 ft 537 kts 46°
2026-04-30 21:53 31.49981 -72.60299 32915 ft 538 kts 46°
2026-04-30 21:54 31.54605 -72.53388 32903 ft 539 kts 47°
2026-04-30 21:54 31.59226 -72.46466 32906 ft 539 kts 47°
2026-04-30 21:55 31.63847 -72.39535 32902 ft 539 kts 47°
2026-04-30 21:55 31.68469 -72.32590 32901 ft 541 kts 47°
2026-04-30 21:56 31.73112 -72.25601 32896 ft 543 kts 47°
2026-04-30 21:56 31.77753 -72.18601 32897 ft 544 kts 47°
2026-04-30 21:57 31.82396 -72.11584 32897 ft 544 kts 47°
2026-04-30 21:57 31.87037 -72.04558 32928 ft 544 kts 47°
2026-04-30 21:58 31.91682 -71.97513 32902 ft 544 kts 47°
2026-04-30 21:58 31.96317 -71.90470 32880 ft 544 kts 47°
2026-04-30 21:59 32.00948 -71.83419 32893 ft 544 kts 47°
2026-04-30 22:00 32.07898 -71.72818 32898 ft 545 kts 47°
2026-04-30 22:00 32.14811 -71.62250 32897 ft 545 kts 47°
2026-04-30 22:01 32.19435 -71.55161 32886 ft 545 kts 47°
2026-04-30 22:01 32.24059 -71.48057 32891 ft 545 kts 47°
2026-04-30 22:02 32.28677 -71.40949 32930 ft 545 kts 48°
2026-04-30 22:02 32.33300 -71.33824 32900 ft 548 kts 48°
2026-04-30 22:03 32.37940 -71.26657 32896 ft 549 kts 48°
2026-04-30 22:03 32.42588 -71.19463 32895 ft 551 kts 48°
2026-04-30 22:04 32.47241 -71.12247 32889 ft 551 kts 48°
2026-04-30 22:05 32.54220 -71.01398 32891 ft 553 kts 48°
2026-04-30 22:05 32.58877 -70.94142 32890 ft 553 kts 49°
2026-04-30 22:06 32.63528 -70.86880 32870 ft 552 kts 48°
2026-04-30 22:06 32.70474 -70.76008 32923 ft 550 kts 49°
2026-04-30 22:07 32.75093 -70.68765 32885 ft 551 kts 49°
2026-04-30 22:07 32.79715 -70.61500 32879 ft 551 kts 49°
2026-04-30 22:08 32.84334 -70.54225 32884 ft 552 kts 49°
2026-04-30 22:08 32.88963 -70.46922 32878 ft 552 kts 49°
2026-04-30 22:09 32.93585 -70.39614 32869 ft 554 kts 49°
2026-04-30 22:09 32.98222 -70.32268 32875 ft 555 kts 49°
2026-04-30 22:10 33.02853 -70.24917 32872 ft 555 kts 49°
2026-04-30 22:10 33.07488 -70.17543 32876 ft 556 kts 48°
2026-04-30 22:11 33.14434 -70.06470 32882 ft 556 kts 49°
2026-04-30 22:12 33.19069 -69.99060 32873 ft 557 kts 49°
2026-04-30 22:12 33.23693 -69.91652 32870 ft 557 kts 49°
2026-04-30 22:13 33.28290 -69.84273 32854 ft 557 kts 49°
2026-04-30 22:13 33.32931 -69.76811 32879 ft 556 kts 49°
2026-04-30 22:14 33.37513 -69.69434 32868 ft 556 kts 49°
2026-04-30 22:14 33.42112 -69.62010 32873 ft 555 kts 49°
2026-04-30 22:15 33.46713 -69.54568 32869 ft 555 kts 49°
2026-04-30 22:15 33.51297 -69.47135 32889 ft 554 kts 49°
2026-04-30 22:16 33.55869 -69.39709 32868 ft 554 kts 49°
2026-04-30 22:17 33.65004 -69.24825 32867 ft 553 kts 49°
2026-04-30 22:17 33.71841 -69.13646 32873 ft 553 kts 49°
2026-04-30 22:18 33.78664 -69.02457 32864 ft 554 kts 49°
2026-04-30 22:19 33.85493 -68.91222 32865 ft 554 kts 50°
2026-04-30 22:20 33.92312 -68.79968 32865 ft 555 kts 49°
2026-04-30 22:20 33.99123 -68.68693 32863 ft 555 kts 50°
2026-04-30 22:21 34.03661 -68.61162 32860 ft 555 kts 50°
2026-04-30 22:21 34.08192 -68.53625 32862 ft 555 kts 50°
2026-04-30 22:22 34.12724 -68.46070 32866 ft 555 kts 49°
2026-04-30 22:22 34.17234 -68.38537 32861 ft 554 kts 49°
2026-04-30 22:23 34.21746 -68.30987 32862 ft 553 kts 49°
2026-04-30 22:23 34.26237 -68.23454 32876 ft 553 kts 49°
2026-04-30 22:24 34.30699 -68.15955 32858 ft 552 kts 49°
2026-04-30 22:24 34.35178 -68.08412 32861 ft 551 kts 49°
2026-04-30 22:25 34.39647 -68.00869 32863 ft 551 kts 49°
2026-04-30 22:25 34.44104 -67.93332 32863 ft 550 kts 49°
2026-04-30 22:26 34.50791 -67.81994 32866 ft 552 kts 49°
2026-04-30 22:27 34.55251 -67.74411 32865 ft 552 kts 49°
2026-04-30 22:27 34.61935 -67.63016 32867 ft 553 kts 49°
2026-04-30 22:28 34.68615 -67.51591 32854 ft 553 kts 49°
2026-04-30 22:29 34.77502 -67.36334 32858 ft 552 kts 49°
2026-04-30 22:31 34.92992 -67.09584 32865 ft 551 kts 50°
2026-04-30 22:32 35.03935 -66.90566 32873 ft 548 kts 51°
2026-04-30 22:33 35.14763 -66.71642 32867 ft 540 kts 51°
2026-04-30 22:35 35.25483 -66.52811 32863 ft 540 kts 51°
2026-04-30 22:36 35.35980 -66.33615 32871 ft 545 kts 58°
2026-04-30 22:37 35.42669 -66.18762 32865 ft 542 kts 58°
2026-04-30 22:38 35.50000 -66.02588 32904 ft 542 kts 58°
2026-04-30 22:39 35.55469 -65.90535 32854 ft 536 kts 58°
2026-04-30 22:40 35.66310 -65.66502 32887 ft 538 kts 58°
2026-04-30 22:41 35.75357 -65.46306 32874 ft 540 kts 59°
2026-04-30 22:43 35.86155 -65.22043 32873 ft 538 kts 59°
2026-04-30 22:44 35.93320 -65.05846 33628 ft 536 kts 59°
2026-04-30 22:45 36.00444 -64.89663 34509 ft 538 kts 59°
2026-04-30 22:45 36.04007 -64.81541 34822 ft 540 kts 59°
2026-04-30 22:47 36.14667 -64.57112 34869 ft 534 kts 59°
2026-04-30 22:48 36.21691 -64.40924 34869 ft 533 kts 59°
2026-04-30 22:49 36.32202 -64.16546 34867 ft 535 kts 59°
2026-04-30 22:51 36.42678 -63.92063 34877 ft 536 kts 59°
2026-04-30 22:52 36.47904 -63.79784 34873 ft 536 kts 59°
2026-04-30 22:53 36.54850 -63.63391 34894 ft 537 kts 59°
2026-04-30 22:53 36.60055 -63.51050 34880 ft 538 kts 59°
2026-04-30 22:55 36.68710 -63.30428 34902 ft 539 kts 59°
2026-04-30 22:56 36.75631 -63.13841 34882 ft 539 kts 59°
2026-04-30 22:57 36.84231 -62.93114 34888 ft 538 kts 59°
2026-04-30 22:58 36.91080 -62.76510 34885 ft 538 kts 59°
2026-04-30 22:59 37.01331 -62.51498 34874 ft 540 kts 59°